Regional Weather Roundup
Issued by NWS Green Bay, WI

Home | Current Version | Previous Version | Graphics & Text | Print | Product List | Glossary Off
Versions: 1 2 3 4 5 6 7 8 9 10 11 12 13 14 15 16 17 18 19 20 21 22 23 24 25 26 27 28 29 30 31 32 33 34 35 36 37 38 39 40 41 42 43 44 45 46 47 48 49 50

000
ASUS43 KGRB 210311
RWRGRB

NORTH-CENTRAL AND NORTHEAST WISCONSIN REGIONAL WEATHER ROUNDUP
NATIONAL WEATHER SERVICE GREEN BAY WI
1000 PM CDT FRI OCT 20 2017

WIZ005-009-010>012-018-019-210400-
NORTH CENTRAL WISCONSIN

CITY           SKY/WX    TMP DP  RH WIND       PRES   REMARKS
IRONWOOD       CLOUDY    66  43  43 S15G23    29.80R
MANITOWISH WTR PTCLDY    62  43  49 S9G18     29.86S
ARBOR VITAE    CLOUDY    64  43  46 S13G18    29.88S
EAGLE RIVER    CLOUDY    62  40  44 S6        29.89S
LAND O LAKES   CLOUDY    63  42  44 S10G16    29.90S
RHINELANDER    CLOUDY    64  44  48 S10       29.90S
PHILLIPS       CLOUDY    63  45  51 S14G21    29.85S
ANTIGO         CLOUDY    56  44  64 S9        29.93F
TOMAHAWK       CLOUDY    57  43  58 CALM      29.89F
MERRILL        PTCLDY    63  45  51 S8        29.91R
$$

WIZ013-073-210400-
NORTHEAST WISCONSIN

CITY           SKY/WX    TMP DP  RH WIND       PRES   REMARKS
IRON MOUNTAIN  CLOUDY    63  45  51 S7        29.91S
MARINETTE      CLOUDY    58  51  78 S3        29.95S
OCONTO         PTCLDY    60  51  72 S6        29.94S
$$

WIZ017-030-035>037-045-210400-
CENTRAL WISCONSIN

CITY           SKY/WX    TMP DP  RH WIND       PRES   REMARKS
MEDFORD        PTCLDY    59  44  57 SE10      29.87S
WAUSAU         CLEAR     62  45  53 S10       29.89S
MOSINEE        PTCLDY    63  46  55 S14       29.92S
MARSHFIELD     PTCLDY    62  44  51 S13       29.88S
WISC RAPIDS    PTCLDY    66  47  50 S10       29.91S
STEVENS POINT  CLOUDY    63  45  51 S13       29.92S
WAUPACA        CLOUDY    61  46  58 SE5       29.94S
SHAWANO        CLOUDY    62  47  57 S5        29.93S
CLINTONVILLE   CLOUDY    61  46  59 S7        29.93S
WAUTOMA        CLOUDY    62  48  60 S8        29.94S
$$

WIZ038-039-048-051-210400-
FOX VALLEY

CITY           SKY/WX    TMP DP  RH WIND       PRES   REMARKS
NWS GREEN BAY  CLOUDY    62  51  67 S9        29.96R
APPLETON       PTCLDY    63  46  55 S10       29.94S
OSHKOSH        PTCLDY    64  50  60 S13       29.95S
FOND DU LAC    MOCLDY    65  47  52 S8        29.97R
$$

WIZ022-050-052-210400-
EAST CENTRAL WISCONSIN

CITY           SKY/WX    TMP DP  RH WIND       PRES   REMARKS
EPHRAIM        FAIR      60  51  72 S10       29.95F
WASHINGTON ISL FAIR      56  54  90 S12G21    29.95F
STURGEON BAY   CLOUDY    60  51  72 S13       29.96F
MANITOWOC      CLOUDY    57  52  83 S8        29.99
SHEBOYGAN      CLOUDY    54  51  90 S5        29.99S
$$

LMZ563-521-522-541>543-210400-
LAKESHORE

STATION/POSITION TIME  TEMP    WIND        PRES    VSBY  WAVE
                       AIR SEA DIR/SP/G                  HT/PER
                 (UTC) (F)     (DEG/KT/KT) (MB)    (MI)  (FT/S)
SHEBOYGAN LKSHOR 0300   58     180/ 18/ 19 1015.3S
KEWAUNEE LKSHORE 0248   54                 1014.2F
NORTHPORT PIER   0240   60     150/  8/ 16 1014.2S
N MID LAKE BUOY  0250   62 58  180/ 17/ 19 1015.3S         5/ 6
S GREEN BAY BUOY 0300   63 58  180/ 14/ 16 1013.7
SISTER BAY LKSHO 0204   62     160/ 15/ 19   N/A
MENOMINEE LKSHOR 0248   60                 1013.7S
$$




USA.gov is the U.S. government's official web portal to all federal, state and local government web resources and services.